Погода в Фирове

Россия / Тверская область     57°28′49″N   33°42′01″E
темп.,
°C
ветер,
м/с
пор.,
м/с
влажн.,
%
обл.,
%
осадки,
мм/ч
давл.,
гПа
погр.,
м
7 мая, пт
пт700:00+5юз51191100 0.2 10031092
03:00+4юз5119075 0.3 10041020
06:00+3юз5119032 0.0 1005915
09:00+7юз6126975 0.0 10061377
12:00+10юз6104999 0.6 10062258
15:00+12юз594099 0.8 10072411
18:00+10ююз476038 0.2 10071069
21:00+6ююв3880100 0.3 1008167
8 мая, сб
сб800:00+7ю31087100 0.1 1007403
03:00+6ююв41193100 1.1 10051189
06:00+6юв31096100 2.1 1002825
09:00+8ю2492100 2.1 1002413
12:00+9з4585100 0.8 10011082
15:00+5сз4891100 1.3 1003845
18:00+6зсз5887100 0.3 1005960
21:00+4зсз51191100 0.4 1007782
9 мая, вс
вс900:00+3зсз4997100 0.1 1009843
03:00+2з61292100 0.4 1009861
06:00+1з4119320 0.0 1014480
09:00+6зсз58675 0.0 1016803
12:00+9зсз594111 0.0 10182179
15:00+10зсз574480 0.0 10202014
18:00+11з454567 0.0 10212033
21:00+5ююз236711 0.0 102340
10 мая, пн
пн1000:00+4ююз312698 0.0 1024270
03:00+4ююз4137598 0.0 1025365
06:00+5ююз41376100 0.0 1026398
09:00+7ююз51472100 0.1 1027501
12:00+14юз68517 0.0 1026951
15:00+18юз574618 0.0 10261522
18:00+17ююз465452 0.0 10261339
21:00+10ююз3108392 0.0 1027207
11 мая, вт
вт1100:00+8ююз3118945 0.0 1029220
03:00+7ююз3119022 0.0 1030226
06:00+8ююз31182100 0.0 1030303
09:00+14ююз485571 0.0 1029627
12:00+18ююз464062 0.0 10291274
15:00+20ююз45385 0.0 10281395
18:00+19ю35495 0.0 10271072
21:00+12ююв38795 0.0 1027140